Find Starlink 32958

NORAD ID: 63563 Int'l Des: 2025-075 Owner: SPXS Country: US Constellation: starlink operational
LEOCIRCULAR

Live-Position

3D-Globus wird geladen...

Über Starlink 32958

Beschreibung wird geladen...

Nächste Überflüge

Passes for default location (London). Set your location on the main map for personalized predictions.

Höhenverlauf

Loading altitude history...

Zweizeiliger Elementsatz

1 63563U 25075R 26123.58890115 .00021943 00000-0 80465-3 0 9998
2 63563 42.9996 320.5795 0001208 261.8430 98.2284 15.27574828 60323
Epoch: 3. Mai 2026 • Age: 9 hours

Aktueller Status

Höhe 487.3 km
Geschwindigkeit 7.62 km/s
Subsatellitenpunkt -20.60°S, 81.67°E
Startdatum 13. Apr. 2025
Alter 1 years
Typ internet

Technische Details

Klassifizierung Payload
Masse 730.00 kg
Trockenmasse 700.00 kg
Gesamtmasse 730.00 kg
Länge 0.30 m
Durchmesser 4.10 m
Spannweite 29.00 m
Form Box + pan
Hersteller SPXS
Bus-Typ Starlink V2M
Phasenstatus In Orbit
Besitzer/Staat SPXS/US

Most Searched